Location: Ward Pound Ridge Reservation
(41.2500°N, 73.6000°W)
Time: 09:46:05
(UTC-04:00)

Tiangong 2 - Pass Details

Date: 15 October 2017
Orbit: 388 x 391 km, 42.8° (Epoch: 22 October)

Event Time Altitude Azimuth Distance (km) Brightness Sun altitude
Exits shadow 05:35:48 53° 314° (NW) 483 1.2 -17.8°
Maximum altitude 05:36:17 64° 3° (N) 436 1.2 -17.7°
Drops below altitude 10° 05:39:29 10° 86° (E) 1,421 5.3 -17.1°
Sets 05:41:34 0° 89° (E) 2,276 6.8 -16.7°
